Time,TemperatureF,DewpointF,PressureIn,WindDirection,WindDirectionDegrees,WindSpeedMPH,WindSpeedGustMPH,Humidity,HourlyPrecipIn,Conditions,Clouds,dailyrainin,SoftwareType,DateUTC
2013-01-31 07:03:00,30.0,-99.9,30.31,South,189,0.0,0.0,-999,0.00,,,0.00,,2013-01-31 14:03:00,
2013-01-31 07:11:00,30.0,-99.9,30.31,South,189,0.0,0.0,-999,0.00,,,0.00,,2013-01-31 14:11:00,
2013-01-31 07:22:00,30.0,-99.9,30.31,South,189,0.0,0.0,-999,0.00,,,0.00,,2013-01-31 14:22:00,
2013-01-31 07:32:00,29.0,-99.9,30.31,South,189,0.0,0.0,-999,0.00,,,0.00,,2013-01-31 14:32:00,
2013-01-31 07:42:00,29.0,-99.9,30.31,South,189,0.0,0.0,-999,0.00,,,0.00,,2013-01-31 14:42:00,
2013-01-31 07:52:00,30.0,-99.9,30.32,South,189,0.0,0.0,-999,0.00,,,0.00,,2013-01-31 14:52:00,
2013-01-31 08:03:00,29.0,-99.9,30.32,SSW,192,0.0,0.0,-999,0.00,,,0.00,,2013-01-31 15:03:00,
2013-01-31 08:12:00,32.0,-99.9,30.32,SW,216,0.0,0.0,-999,0.00,,,0.00,,2013-01-31 15:12:00,
2013-01-31 08:23:00,32.0,-99.9,30.32,SW,216,0.0,0.0,-999,0.00,,,0.00,,2013-01-31 15:23:00,
2013-01-31 08:32:00,35.0,-99.9,30.31,SW,216,0.0,0.0,-999,0.00,,,0.00,,2013-01-31 15:32:00,
2013-01-31 08:42:00,35.0,-99.9,30.31,SW,216,0.0,0.0,-999,0.00,,,0.00,,2013-01-31 15:42:00,
2013-01-31 08:52:00,34.0,-99.9,30.31,SW,216,0.0,0.0,-999,0.00,,,0.00,,2013-01-31 15:52:00,
2013-01-31 09:04:00,34.0,-99.9,30.30,SW,216,0.0,0.0,-999,0.00,,,0.00,,2013-01-31 16:04:00,
2013-01-31 09:13:00,34.0,-99.9,30.31,SW,216,0.0,0.0,-999,0.00,,,0.00,,2013-01-31 16:13:00,
2013-01-31 09:22:00,34.0,-99.9,30.31,SW,216,0.0,0.0,-999,0.00,,,0.00,,2013-01-31 16:22:00,
2013-01-31 09:33:00,38.0,-99.9,30.31,SW,216,0.0,0.0,-999,0.00,,,0.00,,2013-01-31 16:33:00,
2013-01-31 09:42:00,38.0,-99.9,30.31,SW,216,0.0,0.0,-999,0.00,,,0.00,,2013-01-31 16:42:00,
2013-01-31 09:52:00,39.0,-99.9,30.32,SW,216,0.0,0.0,-999,0.00,,,0.00,,2013-01-31 16:52:00,
2013-01-31 10:03:00,39.0,-99.9,30.31,SW,216,0.0,0.0,-999,0.00,,,0.00,,2013-01-31 17:03:00,
2013-01-31 10:13:00,43.0,-99.9,30.31,SSW,212,0.0,0.0,-999,0.00,,,0.00,,2013-01-31 17:13:00,
2013-01-31 10:23:00,43.0,-99.9,30.31,SSW,212,0.0,0.0,-999,0.00,,,0.00,,2013-01-31 17:23:00,
2013-01-31 10:32:00,44.0,-99.9,30.32,South,188,0.0,0.0,-999,0.00,,,0.00,,2013-01-31 17:32:00,
2013-01-31 10:44:00,44.0,-99.9,30.32,South,188,0.0,0.0,-999,0.00,,,0.00,,2013-01-31 17:44:00,
2013-01-31 10:53:00,45.0,-99.9,30.32,South,177,0.0,3.0,-999,0.00,,,0.00,,2013-01-31 17:53:00,
2013-01-31 11:03:00,47.0,-99.9,30.32,SSE,153,0.0,4.0,-999,0.00,,,0.00,,2013-01-31 18:03:00,
2013-01-31 11:13:00,47.0,-99.9,30.32,SSW,194,0.0,6.0,-999,0.00,,,0.00,,2013-01-31 18:13:00,
2013-01-31 11:22:00,47.0,-99.9,30.32,SSW,194,0.0,6.0,-999,0.00,,,0.00,,2013-01-31 18:22:00,
2013-01-31 11:32:00,48.0,-99.9,30.32,SE,143,0.0,0.0,-999,0.00,,,0.00,,2013-01-31 18:32:00,
2013-01-31 11:43:00,48.0,-99.9,30.32,SE,143,0.0,0.0,-999,0.00,,,0.00,,2013-01-31 18:43:00,
2013-01-31 11:52:00,50.0,-99.9,30.30,South,188,0.0,0.0,-999,0.00,,,0.00,,2013-01-31 18:52:00,
2013-01-31 12:03:00,50.0,-99.9,30.30,WSW,239,1.0,3.0,-999,0.00,,,0.00,,2013-01-31 19:03:00,
2013-01-31 12:13:00,50.0,-99.9,30.30,WSW,239,1.0,3.0,-999,0.00,,,0.00,,2013-01-31 19:13:00,
2013-01-31 12:22:00,50.0,-99.9,30.30,WSW,239,0.0,0.0,-999,0.00,,,0.00,,2013-01-31 19:22:00,
2013-01-31 12:33:00,50.0,-99.9,30.29,South,177,0.0,3.0,-999,0.00,,,0.00,,2013-01-31 19:33:00,
2013-01-31 12:43:00,50.0,-99.9,30.29,South,177,0.0,3.0,-999,0.00,,,0.00,,2013-01-31 19:43:00,
2013-01-31 12:52:00,52.0,-99.9,30.29,SW,234,0.0,3.0,-999,0.00,,,0.00,,2013-01-31 19:52:00,
2013-01-31 13:03:00,52.0,-99.9,30.27,SSW,203,0.0,0.0,-999,0.00,,,0.00,,2013-01-31 20:03:00,
2013-01-31 13:12:00,53.0,-99.9,30.27,SSW,203,0.0,0.0,-999,0.00,,,0.00,,2013-01-31 20:12:00,
2013-01-31 13:22:00,53.0,-99.9,30.27,SSW,203,0.0,0.0,-999,0.00,,,0.00,,2013-01-31 20:22:00,
2013-01-31 13:32:00,54.0,-99.9,30.26,SSW,203,0.0,0.0,-999,0.00,,,0.00,,2013-01-31 20:32:00,
2013-01-31 13:42:00,55.0,-99.9,30.25,SSE,151,0.0,0.0,-999,0.00,,,0.00,,2013-01-31 20:42:00,
2013-01-31 13:52:00,55.0,-99.9,30.25,SSE,151,0.0,0.0,-999,0.00,,,0.00,,2013-01-31 20:52:00,
2013-01-31 14:02:00,55.0,-99.9,30.24,East,88,0.0,0.0,-999,0.00,,,0.00,,2013-01-31 21:02:00,
2013-01-31 14:12:00,56.0,-99.9,30.24,East,88,0.0,0.0,-999,0.00,,,0.00,,2013-01-31 21:12:00,
2013-01-31 14:22:00,56.0,-99.9,30.24,East,88,0.0,0.0,-999,0.00,,,0.00,,2013-01-31 21:22:00,
2013-01-31 14:32:00,57.0,-99.9,30.24,SSE,161,0.0,0.0,-999,0.00,,,0.00,,2013-01-31 21:32:00,
2013-01-31 14:42:00,57.0,-99.9,30.24,SSE,161,0.0,0.0,-999,0.00,,,0.00,,2013-01-31 21:42:00,
2013-01-31 14:52:00,56.0,-99.9,30.24,South,180,0.0,0.0,-999,0.00,,,0.00,,2013-01-31 21:52:00,
2013-01-31 15:03:00,56.0,-99.9,30.24,South,180,0.0,0.0,-999,0.00,,,0.00,,2013-01-31 22:03:00,
2013-01-31 15:11:00,57.0,-99.9,30.23,South,180,0.0,0.0,-999,0.00,,,0.00,,2013-01-31 22:11:00,
2013-01-31 15:22:00,57.0,-99.9,30.23,South,180,0.0,0.0,-999,0.00,,,0.00,,2013-01-31 22:22:00,
2013-01-31 15:33:00,57.0,-99.9,30.23,ESE,116,0.0,3.0,-999,0.00,,,0.00,,2013-01-31 22:33:00,
2013-01-31 15:42:00,57.0,-99.9,30.23,ESE,116,0.0,3.0,-999,0.00,,,0.00,,2013-01-31 22:42:00,
2013-01-31 15:52:00,57.0,-99.9,30.23,ESE,116,0.0,0.0,-999,0.00,,,0.00,,2013-01-31 22:52:00,
2013-01-31 16:03:00,57.0,-99.9,30.23,ESE,116,0.0,0.0,-999,0.00,,,0.00,,2013-01-31 23:03:00,
2013-01-31 16:12:00,57.0,-99.9,30.23,SE,129,0.0,5.0,-999,0.00,,,0.00,,2013-01-31 23:12:00,
2013-01-31 16:22:00,57.0,-99.9,30.23,SE,129,0.0,5.0,-999,0.00,,,0.00,,2013-01-31 23:22:00,
2013-01-31 16:32:00,57.0,-99.9,30.23,SE,129,0.0,0.0,-999,0.00,,,0.00,,2013-01-31 23:32:00,
2013-01-31 16:42:00,57.0,-99.9,30.23,SE,129,0.0,0.0,-999,0.00,,,0.00,,2013-01-31 23:42:00,
2013-01-31 16:52:00,57.0,-99.9,30.23,SE,129,0.0,0.0,-999,0.00,,,0.00,,2013-01-31 23:52:00,
2013-01-31 17:02:00,56.0,-99.9,30.23,ENE,78,0.0,6.0,-999,0.00,,,0.00,,2013-02-01 00:02:00,
2013-01-31 17:11:00,56.0,-99.9,30.23,ENE,78,0.0,6.0,-999,0.00,,,0.00,,2013-02-01 00:11:00,
2013-01-31 17:22:00,56.0,-99.9,30.22,ENE,71,0.0,0.0,-999,0.00,,,0.00,,2013-02-01 00:22:00,
2013-01-31 17:32:00,57.0,-99.9,30.22,ENE,71,0.0,0.0,-999,0.00,,,0.00,,2013-02-01 00:32:00,
2013-01-31 17:42:00,57.0,-99.9,30.22,ENE,71,0.0,0.0,-999,0.00,,,0.00,,2013-02-01 00:42:00,
2013-01-31 17:52:00,55.0,-99.9,30.22,SSE,157,4.0,6.0,-999,0.00,,,0.00,,2013-02-01 00:52:00,
2013-01-31 18:01:00,54.0,-99.9,30.22,SSE,147,0.0,0.0,-999,0.00,,,0.00,,2013-02-01 01:01:00,
2013-01-31 18:12:00,52.0,-99.9,30.22,NNE,12,0.0,0.0,-999,0.00,,,0.00,,2013-02-01 01:12:00,
2013-01-31 18:22:00,52.0,-99.9,30.22,NNE,12,0.0,0.0,-999,0.00,,,0.00,,2013-02-01 01:22:00,
2013-01-31 18:32:00,51.0,-99.9,30.23,NNE,12,0.0,0.0,-999,0.00,,,0.00,,2013-02-01 01:32:00,
2013-01-31 18:42:00,51.0,-99.9,30.23,NNE,12,0.0,0.0,-999,0.00,,,0.00,,2013-02-01 01:42:00,
2013-01-31 18:52:00,51.0,-99.9,30.23,NNE,12,0.0,0.0,-999,0.00,,,0.00,,2013-02-01 01:52:00,
2013-01-31 19:02:00,50.0,-99.9,30.24,NNE,12,0.0,0.0,-999,0.00,,,0.00,,2013-02-01 02:02:00,
2013-01-31 19:12:00,50.0,-99.9,30.24,NNE,12,0.0,0.0,-999,0.00,,,0.00,,2013-02-01 02:12:00,
2013-01-31 19:22:00,48.0,-99.9,30.24,NNE,12,0.0,0.0,-999,0.00,,,0.00,,2013-02-01 02:22:00,
2013-01-31 19:32:00,47.0,-99.9,30.25,NNE,12,0.0,0.0,-999,0.00,,,0.00,,2013-02-01 02:32:00,
2013-01-31 19:42:00,47.0,-99.9,30.25,NNE,12,0.0,0.0,-999,0.00,,,0.00,,2013-02-01 02:42:00,
2013-01-31 19:52:00,47.0,-99.9,30.26,NNE,12,0.0,0.0,-999,0.00,,,0.00,,2013-02-01 02:52:00,
2013-01-31 20:02:00,46.0,-99.9,30.26,NNE,12,0.0,0.0,-999,0.00,,,0.00,,2013-02-01 03:02:00,
2013-01-31 20:12:00,46.0,-99.9,30.26,NNE,12,0.0,0.0,-999,0.00,,,0.00,,2013-02-01 03:12:00,
2013-01-31 20:22:00,46.0,-99.9,30.27,NNE,12,0.0,0.0,-999,0.00,,,0.00,,2013-02-01 03:22:00,
2013-01-31 20:33:00,46.0,-99.9,30.27,NNE,12,0.0,0.0,-999,0.00,,,0.00,,2013-02-01 03:33:00,
2013-01-31 20:42:00,46.0,-99.9,30.27,NNE,12,0.0,0.0,-999,0.00,,,0.00,,2013-02-01 03:42:00,
2013-01-31 20:52:00,44.0,-99.9,30.27,NNE,12,0.0,0.0,-999,0.00,,,0.00,,2013-02-01 03:52:00,
2013-01-31 21:02:00,44.0,-99.9,30.26,NNE,12,0.0,0.0,-999,0.00,,,0.00,,2013-02-01 04:02:00,
2013-01-31 21:11:00,43.0,-99.9,30.26,NNE,12,0.0,0.0,-999,0.00,,,0.00,,2013-02-01 04:11:00,
2013-01-31 21:22:00,43.0,-99.9,30.26,NNE,12,0.0,0.0,-999,0.00,,,0.00,,2013-02-01 04:22:00,
2013-01-31 21:32:00,42.0,-99.9,30.26,NNE,12,0.0,0.0,-999,0.00,,,0.00,,2013-02-01 04:32:00,
2013-01-31 21:42:00,42.0,-99.9,30.26,NNE,12,0.0,0.0,-999,0.00,,,0.00,,2013-02-01 04:42:00,
2013-01-31 21:52:00,42.0,-99.9,30.25,NNE,12,0.0,0.0,-999,0.00,,,0.00,,2013-02-01 04:52:00,
2013-01-31 22:03:00,42.0,-99.9,30.24,NNE,12,0.0,0.0,-999,0.00,,,0.00,,2013-02-01 05:03:00,
2013-01-31 22:12:00,42.0,-99.9,30.24,NNE,12,0.0,0.0,-999,0.00,,,0.00,,2013-02-01 05:12:00,
2013-01-31 22:22:00,44.0,-99.9,30.25,SSW,212,0.0,1.0,-999,0.00,,,0.00,,2013-02-01 05:22:00,
2013-01-31 22:32:00,42.0,-99.9,30.26,SSW,212,0.0,0.0,-999,0.00,,,0.00,,2013-02-01 05:32:00,
2013-01-31 22:42:00,42.0,-99.9,30.26,SSW,212,0.0,0.0,-999,0.00,,,0.00,,2013-02-01 05:42:00,
2013-01-31 22:52:00,44.0,-99.9,30.26,SSW,212,0.0,0.0,-999,0.00,,,0.00,,2013-02-01 05:52:00,
2013-01-31 23:02:00,44.0,-99.9,30.27,SSW,212,0.0,0.0,-999,0.00,,,0.00,,2013-02-01 06:02:00,
2013-01-31 23:12:00,44.0,-99.9,30.27,SSW,212,0.0,0.0,-999,0.00,,,0.00,,2013-02-01 06:12:00,
2013-01-31 23:22:00,41.0,-99.9,30.27,SSW,212,0.0,0.0,-999,0.00,,,0.00,,2013-02-01 06:22:00,
2013-01-31 23:32:00,40.0,-99.9,30.27,SSW,212,0.0,0.0,-999,0.00,,,0.00,,2013-02-01 06:32:00,
2013-01-31 23:42:00,40.0,-99.9,30.27,SSW,212,0.0,0.0,-999,0.00,,,0.00,,2013-02-01 06:42:00,
2013-01-31 23:52:00,38.0,-99.9,30.29,SSW,212,0.0,0.0,-999,0.00,,,0.00,,2013-02-01 06:52:00,